| time (UTC) | temp F | wind direction | speed MPH | gust MPH | rain 1hr in | rain 24hr in | rain mn in | humidity % | barometer mb |
| 20260507090530 | 46 | 0 | 0.0 | 2.0 | 0.00 | 0.00 | 0.00 | 85 | 1015.3 |
| 20260507090046 | 46 | 0 | 0.0 | 2.0 | 0.00 | 0.00 | 0.00 | 85 | 1015.2 |
| 20260507085529 | 47 | 0 | 0.0 | 1.0 | 0.00 | 0.01 | 0.00 | 84 | 1015.2 |
| 20260507085031 | 47 | 0 | 0.0 | 1.0 | 0.00 | 0.01 | 0.00 | 84 | 1015.0 |
| 20260507084546 | 47 | 0 | 0.0 | 1.0 | 0.00 | 0.01 | 0.00 | 84 | 1015.0 |
| 20260507084027 | 47 | 0 | 0.0 | 1.0 | 0.00 | 0.01 | 0.00 | 84 | 1015.0 |
| 20260507083532 | 47 | 0 | 0.0 | 1.0 | 0.00 | 0.01 | 0.00 | 84 | 1015.0 |
| 20260507083045 | 47 | 0 | 0.0 | 1.0 | 0.00 | 0.01 | 0.00 | 84 | 1014.9 |
| 20260507082531 | 47 | 78 | 0.0 | 2.0 | 0.00 | 0.01 | 0.00 | 84 | 1014.8 |
| 20260507082030 | 47 | 0 | 0.0 | 2.0 | 0.00 | 0.01 | 0.00 | 84 | 1014.9 |
| 20260507081549 | 47 | 0 | 0.0 | 1.0 | 0.00 | 0.01 | 0.00 | 84 | 1014.8 |
| 20260507081034 | 47 | 0 | 0.0 | 1.0 | 0.00 | 0.01 | 0.00 | 85 | 1014.9 |
| 20260507080530 | 47 | 60 | 0.0 | 1.0 | 0.00 | 0.01 | 0.00 | 86 | 1015.0 |
| 20260507080048 | 47 | 0 | 0.0 | 1.0 | 0.00 | 0.01 | 0.00 | 86 | 1014.9 |
| 20260507075531 | 47 | 0 | 0.0 | 1.0 | 0.00 | 0.04 | 0.00 | 87 | 1014.9 |
| 20260507075032 | 47 | 0 | 0.0 | 1.0 | 0.00 | 0.04 | 0.00 | 87 | 1014.9 |
| 20260507074556 | 46 | 0 | 0.0 | 1.0 | 0.00 | 0.04 | 0.00 | 88 | 1014.7 |
| 20260507074031 | 46 | 0 | 0.0 | 0.0 | 0.00 | 0.04 | 0.00 | 88 | 1014.7 |
| 20260507073528 | 46 | 0 | 0.0 | 0.0 | 0.00 | 0.04 | 0.00 | 88 | 1014.8 |
| 20260507073047 | 46 | 0 | 0.0 | 0.0 | 0.00 | 0.04 | 0.00 | 88 | 1015.0 |
| 20260507072529 | 46 | 0 | 0.0 | 0.0 | 0.00 | 0.04 | 0.00 | 88 | 1014.9 |
| 20260507072031 | 46 | 0 | 0.0 | 0.0 | 0.00 | 0.04 | 0.00 | 88 | 1014.8 |
| 20260507071547 | 46 | 0 | 0.0 | 0.0 | 0.00 | 0.04 | 0.00 | 88 | 1014.9 |
| 20260507071029 | 46 | 0 | 0.0 | 0.0 | 0.00 | 0.04 | 0.00 | 88 | 1014.9 |
| 20260507070530 | 46 | 0 | 0.0 | 0.0 | 0.00 | 0.04 | 0.00 | 88 | 1014.8 |
| 20260507070044 | 46 | 0 | 0.0 | 0.0 | 0.00 | 0.04 | 0.00 | 87 | 1015.0 |
| 20260507065531 | 47 | 0 | 0.0 | 0.0 | 0.00 | 0.12 | 0.00 | 87 | 1014.9 |
| 20260507065029 | 47 | 0 | 0.0 | 0.0 | 0.00 | 0.12 | 0.00 | 88 | 1015.0 |
| 20260507064544 | 47 | 0 | 0.0 | 0.0 | 0.00 | 0.12 | 0.00 | 87 | 1014.9 |
| 20260507064030 | 47 | 0 | 0.0 | 0.0 | 0.00 | 0.12 | 0.00 | 87 | 1015.0 |
| 20260507063529 | 47 | 0 | 0.0 | 0.0 | 0.00 | 0.12 | 0.00 | 87 | 1015.0 |
| 20260507063047 | 47 | 0 | 0.0 | 0.0 | 0.00 | 0.12 | 0.00 | 87 | 1015.1 |
| 20260507062531 | 47 | 0 | 0.0 | 0.0 | 0.00 | 0.12 | 0.00 | 87 | 1015.2 |
| 20260507062028 | 47 | 0 | 0.0 | 0.0 | 0.00 | 0.12 | 0.00 | 86 | 1015.2 |
| 20260507061541 | 48 | 0 | 0.0 | 0.0 | 0.00 | 0.12 | 0.00 | 86 | 1015.2 |
| 20260507061029 | 48 | 0 | 0.0 | 0.0 | 0.00 | 0.12 | 0.00 | 86 | 1015.1 |
| 20260507060531 | 48 | 0 | 0.0 | 0.0 | 0.00 | 0.12 | 0.00 | 85 | 1015.1 |
| 20260507060047 | 49 | 0 | 0.0 | 0.0 | 0.00 | 0.12 | 0.00 | 85 | 1015.0 |
| 20260507055529 | 49 | 0 | 0.0 | 1.0 | 0.00 | 0.31 | 0.00 | 84 | 1015.2 |
| 20260507055032 | 49 | 0 | 0.0 | 1.0 | 0.00 | 0.31 | 0.00 | 84 | 1015.2 |
| 20260507054611 | 49 | 0 | 0.0 | 1.0 | 0.00 | 0.31 | 0.00 | 83 | 1015.3 |
| 20260507054032 | 49 | 0 | 0.0 | 0.0 | 0.00 | 0.31 | 0.00 | 84 | 1015.2 |
| 20260507053531 | 49 | 0 | 0.0 | 0.0 | 0.00 | 0.31 | 0.00 | 84 | 1015.1 |
| 20260507053050 | 49 | 0 | 0.0 | 1.0 | 0.00 | 0.31 | 0.00 | 84 | 1015.1 |
| 20260507052531 | 50 | 0 | 0.0 | 1.0 | 0.00 | 0.31 | 0.00 | 83 | 1015.1 |
| 20260507052030 | 50 | 0 | 0.0 | 1.0 | 0.00 | 0.31 | 0.00 | 82 | 1015.1 |
| 20260507051544 | 50 | 0 | 0.0 | 2.0 | 0.00 | 0.31 | 0.00 | 82 | 1015.1 |
| 20260507051031 | 50 | 0 | 0.0 | 2.0 | 0.00 | 0.31 | 0.00 | 82 | 1015.0 |
| 20260507050531 | 50 | 0 | 0.0 | 2.0 | 0.00 | 0.31 | 0.00 | 81 | 1015.1 |
| 20260507050053 | 50 | 53 | 0.0 | 2.0 | 0.00 | 0.31 | 0.00 | 81 | 1015.0 |
| 20260507045528 | 50 | 28 | 0.0 | 1.0 | 0.00 | 0.45 | 0.00 | 81 | 1014.9 |
| 20260507045028 | 50 | 0 | 0.0 | 0.0 | 0.00 | 0.45 | 0.00 | 82 | 1014.9 |
| 20260507044548 | 50 | 0 | 0.0 | 0.0 | 0.00 | 0.45 | 0.00 | 82 | 1015.0 |
| 20260507044028 | 50 | 0 | 0.0 | 0.0 | 0.00 | 0.45 | 0.00 | 83 | 1014.9 |
| 20260507043528 | 50 | 0 | 0.0 | 0.0 | 0.00 | 0.45 | 0.00 | 84 | 1014.9 |
| 20260507043046 | 50 | 0 | 0.0 | 0.0 | 0.00 | 0.45 | 0.00 | 83 | 1014.9 |
| 20260507042530 | 50 | 0 | 0.0 | 0.0 | 0.00 | 0.45 | 0.00 | 82 | 1015.0 |
| 20260507042031 | 50 | 0 | 0.0 | 0.0 | 0.00 | 0.45 | 0.00 | 82 | 1015.3 |
| 20260507041549 | 49 | 0 | 0.0 | 0.0 | 0.00 | 0.45 | 0.00 | 81 | 1015.3 |
| 20260507041032 | 50 | 0 | 0.0 | 0.0 | 0.00 | 0.45 | 0.00 | 83 | 1015.2 |
| 20260507040532 | 50 | 0 | 0.0 | 0.0 | 0.00 | 0.45 | 0.00 | 83 | 1015.0 |
| 20260507040047 | 49 | 0 | 0.0 | 0.0 | 0.00 | 0.45 | 0.00 | 85 | 1015.2 |
| 20260507035533 | 49 | 0 | 0.0 | 0.0 | 0.00 | 0.48 | 0.45 | 85 | 1015.2 |
| 20260507035028 | 49 | 0 | 0.0 | 0.0 | 0.00 | 0.48 | 0.45 | 85 | 1015.2 |
| 20260507034557 | 49 | 0 | 0.0 | 0.0 | 0.00 | 0.48 | 0.45 | 83 | 1015.3 |
| 20260507034030 | 50 | 0 | 0.0 | 0.0 | 0.00 | 0.48 | 0.45 | 84 | 1015.5 |
| 20260507033531 | 49 | 0 | 0.0 | 0.0 | 0.00 | 0.48 | 0.45 | 84 | 1015.4 |
| 20260507033052 | 50 | 0 | 0.0 | 0.0 | 0.00 | 0.48 | 0.45 | 84 | 1015.3 |
| 20260507032530 | 50 | 0 | 0.0 | 0.0 | 0.00 | 0.48 | 0.45 | 84 | 1015.4 |
| 20260507032028 | 50 | 0 | 0.0 | 0.0 | 0.00 | 0.48 | 0.45 | 83 | 1015.4 |
| 20260507031601 | 50 | 0 | 0.0 | 0.0 | 0.00 | 0.48 | 0.45 | 83 | 1015.3 |
| 20260507031032 | 50 | 0 | 0.0 | 0.0 | 0.00 | 0.48 | 0.45 | 82 | 1015.2 |
| 20260507030531 | 50 | 0 | 0.0 | 0.0 | 0.00 | 0.48 | 0.45 | 82 | 1015.1 |
| 20260507030051 | 50 | 0 | 0.0 | 0.0 | 0.00 | 0.48 | 0.45 | 82 | 1015.2 |
| 20260507025530 | 50 | 0 | 0.0 | 0.0 | 0.00 | 0.52 | 0.45 | 81 | 1015.0 |
| 20260507025028 | 50 | 0 | 0.0 | 0.0 | 0.00 | 0.52 | 0.45 | 80 | 1015.3 |
| 20260507024544 | 51 | 0 | 0.0 | 0.0 | 0.00 | 0.52 | 0.45 | 80 | 1015.0 |
| 20260507024031 | 51 | 0 | 0.0 | 0.0 | 0.00 | 0.52 | 0.45 | 79 | 1015.0 |
| 20260507023528 | 51 | 0 | 0.0 | 0.0 | 0.00 | 0.52 | 0.45 | 79 | 1014.9 |
| 20260507023049 | 52 | 0 | 0.0 | 0.0 | 0.00 | 0.52 | 0.45 | 78 | 1014.6 |
| 20260507022535 | 52 | 0 | 0.0 | 0.0 | 0.00 | 0.52 | 0.45 | 77 | 1014.7 |
| 20260507022032 | 52 | 0 | 0.0 | 0.0 | 0.00 | 0.52 | 0.45 | 76 | 1014.9 |
| 20260507021544 | 52 | 0 | 0.0 | 0.0 | 0.00 | 0.52 | 0.45 | 75 | 1014.7 |
| 20260507021029 | 53 | 0 | 0.0 | 0.0 | 0.00 | 0.52 | 0.45 | 74 | 1014.6 |
| 20260507020531 | 53 | 0 | 0.0 | 0.0 | 0.00 | 0.52 | 0.45 | 71 | 1014.5 |
| 20260507020048 | 54 | 0 | 0.0 | 0.0 | 0.00 | 0.52 | 0.45 | 71 | 1014.5 |
| 20260507015530 | 54 | 0 | 0.0 | 0.0 | 0.00 | 0.52 | 0.45 | 70 | 1014.4 |
| 20260507015030 | 55 | 0 | 0.0 | 0.0 | 0.00 | 0.52 | 0.45 | 69 | 1014.5 |
| 20260507014549 | 55 | 0 | 0.0 | 0.0 | 0.00 | 0.52 | 0.45 | 67 | 1014.2 |
| 20260507014031 | 55 | 0 | 0.0 | 1.0 | 0.00 | 0.52 | 0.45 | 66 | 1014.0 |
| 20260507013530 | 55 | 0 | 0.0 | 1.0 | 0.00 | 0.52 | 0.45 | 65 | 1014.1 |
| 20260507013047 | 55 | 0 | 0.0 | 1.0 | 0.00 | 0.52 | 0.45 | 65 | 1014.0 |
| 20260507012531 | 56 | 0 | 0.0 | 1.0 | 0.00 | 0.52 | 0.45 | 65 | 1014.0 |
| 20260507012031 | 56 | 0 | 0.0 | 1.0 | 0.00 | 0.52 | 0.45 | 64 | 1014.0 |
| 20260507011546 | 56 | 0 | 0.0 | 1.0 | 0.00 | 0.52 | 0.45 | 63 | 1014.1 |
| 20260507011031 | 56 | 0 | 0.0 | 1.0 | 0.00 | 0.52 | 0.45 | 64 | 1014.3 |
| 20260507010531 | 56 | 0 | 0.0 | 5.0 | 0.00 | 0.52 | 0.45 | 62 | 1013.9 |
| 20260507010046 | 56 | 0 | 0.0 | 5.0 | 0.00 | 0.52 | 0.45 | 62 | 1014.0 |
| 20260507005531 | 57 | 40 | 2.0 | 5.0 | 0.00 | 0.52 | 0.45 | 61 | 1013.9 |
| 20260507005030 | 57 | 4 | 1.0 | 3.0 | 0.00 | 0.52 | 0.45 | 61 | 1014.1 |
| 20260507004543 | 57 | 13 | 1.0 | 4.0 | 0.00 | 0.52 | 0.45 | 61 | 1013.8 |
| 20260507004031 | 57 | 0 | 0.0 | 4.0 | 0.00 | 0.52 | 0.45 | 61 | 1013.9 |
| 20260507003531 | 57 | 24 | 0.0 | 4.0 | 0.00 | 0.52 | 0.45 | 60 | 1014.0 |
| 20260507003050 | 57 | 0 | 1.0 | 4.0 | 0.00 | 0.52 | 0.45 | 59 | 1014.0 |
| 20260507002528 | 57 | 0 | 0.0 | 2.0 | 0.00 | 0.52 | 0.45 | 60 | 1013.9 |
| 20260507002028 | 57 | 0 | 0.0 | 4.0 | 0.00 | 0.52 | 0.45 | 58 | 1013.9 |
| 20260507001541 | 57 | 0 | 1.0 | 4.0 | 0.00 | 0.52 | 0.45 | 58 | 1013.9 |
| 20260507001031 | 58 | 0 | 1.0 | 3.0 | 0.00 | 0.52 | 0.45 | 56 | 1013.8 |
| 20260507000534 | 57 | 0 | 1.0 | 7.0 | 0.00 | 0.52 | 0.45 | 56 | 1013.8 |
| 20260507000048 | 58 | 51 | 1.0 | 7.0 | 0.00 | 0.52 | 0.45 | 55 | 1013.7 |
| 20260506235531 | 58 | 60 | 3.0 | 7.0 | 0.00 | 0.58 | 0.45 | 54 | 1013.5 |
| 20260506235027 | 58 | 60 | 2.0 | 7.0 | 0.00 | 0.58 | 0.45 | 54 | 1013.4 |
| 20260506234545 | 58 | 324 | 1.0 | 7.0 | 0.00 | 0.58 | 0.45 | 56 | 1013.2 |
| 20260506234032 | 58 | 21 | 0.0 | 5.0 | 0.00 | 0.58 | 0.45 | 55 | 1013.2 |
| 20260506233531 | 58 | 355 | 3.0 | 5.0 | 0.00 | 0.58 | 0.45 | 55 | 1013.1 |
| 20260506233051 | 58 | 25 | 2.0 | 6.0 | 0.00 | 0.58 | 0.45 | 54 | 1013.2 |
| 20260506232530 | 58 | 29 | 3.0 | 7.0 | 0.00 | 0.58 | 0.45 | 54 | 1013.5 |
| 20260506232029 | 58 | 354 | 2.0 | 7.0 | 0.00 | 0.58 | 0.45 | 55 | 1013.5 |
| 20260506231544 | 58 | 34 | 2.0 | 7.0 | 0.00 | 0.58 | 0.45 | 54 | 1013.5 |
| 20260506231030 | 58 | 23 | 2.0 | 8.0 | 0.00 | 0.58 | 0.45 | 54 | 1013.7 |
| 20260506230528 | 59 | 86 | 3.0 | 8.0 | 0.00 | 0.58 | 0.45 | 54 | 1013.7 |
| 20260506230056 | 59 | 351 | 2.0 | 7.0 | 0.00 | 0.58 | 0.45 | 54 | 1013.7 |
| 20260506225531 | 59 | 1 | 2.0 | 7.0 | 0.00 | 0.65 | 0.45 | 54 | 1013.7 |
| 20260506225028 | 59 | 28 | 3.0 | 7.0 | 0.00 | 0.65 | 0.45 | 54 | 1013.7 |
| 20260506224545 | 59 | 340 | 3.0 | 8.0 | 0.00 | 0.65 | 0.45 | 54 | 1013.8 |
| 20260506224030 | 59 | 41 | 4.0 | 8.0 | 0.00 | 0.65 | 0.45 | 52 | 1013.6 |
| 20260506223531 | 59 | 344 | 5.0 | 7.0 | 0.00 | 0.65 | 0.45 | 51 | 1013.2 |
| 20260506223047 | 59 | 33 | 3.0 | 8.0 | 0.00 | 0.65 | 0.45 | 51 | 1012.9 |
| 20260506222531 | 59 | 16 | 3.0 | 8.0 | 0.00 | 0.65 | 0.45 | 52 | 1012.8 |
| 20260506222029 | 59 | 0 | 3.0 | 8.0 | 0.00 | 0.65 | 0.45 | 53 | 1013.0 |
| 20260506221544 | 59 | 77 | 4.0 | 7.0 | 0.00 | 0.65 | 0.45 | 52 | 1012.9 |
| 20260506221031 | 59 | 0 | 2.0 | 8.0 | 0.00 | 0.65 | 0.45 | 53 | 1013.1 |
| 20260506220528 | 59 | 18 | 3.0 | 8.0 | 0.00 | 0.65 | 0.45 | 53 | 1013.1 |
| 20260506220047 | 59 | 16 | 3.0 | 8.0 | 0.00 | 0.65 | 0.45 | 53 | 1012.9 |
| 20260506215527 | 59 | 23 | 3.0 | 10.0 | 0.00 | 0.65 | 0.45 | 54 | 1013.3 |
| 20260506215032 | 59 | 342 | 3.0 | 10.0 | 0.00 | 0.65 | 0.45 | 53 | 1013.0 |
| 20260506214550 | 59 | 5 | 5.0 | 10.0 | 0.00 | 0.65 | 0.45 | 53 | 1012.6 |
| 20260506214028 | 59 | 68 | 3.0 | 7.0 | 0.00 | 0.65 | 0.45 | 53 | 1012.6 |
| 20260506213528 | 59 | 64 | 3.0 | 8.0 | 0.00 | 0.65 | 0.45 | 53 | 1013.0 |
| 20260506213102 | 59 | 316 | 4.0 | 8.0 | 0.00 | 0.65 | 0.45 | 52 | 1013.1 |
| 20260506212528 | 59 | 359 | 4.0 | 7.0 | 0.00 | 0.65 | 0.45 | 52 | 1013.1 |
| 20260506212033 | 59 | 68 | 3.0 | 9.0 | 0.00 | 0.65 | 0.45 | 52 | 1012.9 |
| 20260506211544 | 59 | 0 | 2.0 | 9.0 | 0.00 | 0.65 | 0.45 | 55 | 1013.2 |
| 20260506211029 | 59 | 72 | 4.0 | 9.0 | 0.00 | 0.65 | 0.45 | 54 | 1013.5 |
| 20260506210532 | 59 | 84 | 2.0 | 7.0 | 0.00 | 0.65 | 0.45 | 54 | 1013.3 |
| 20260506210047 | 59 | 0 | 3.0 | 7.0 | 0.00 | 0.65 | 0.45 | 53 | 1013.1 |
| 20260506205530 | 60 | 82 | 3.0 | 7.0 | 0.00 | 0.65 | 0.45 | 51 | 1013.1 |
| 20260506205032 | 60 | 95 | 2.0 | 9.0 | 0.00 | 0.65 | 0.45 | 52 | 1013.2 |
| 20260506204548 | 60 | 353 | 4.0 | 9.0 | 0.00 | 0.65 | 0.45 | 53 | 1013.3 |
| 20260506204033 | 60 | 41 | 1.0 | 8.0 | 0.00 | 0.65 | 0.45 | 55 | 1013.3 |
| 20260506203530 | 60 | 356 | 4.0 | 8.0 | 0.00 | 0.65 | 0.45 | 53 | 1013.2 |
| 20260506203047 | 60 | 311 | 4.0 | 11.0 | 0.00 | 0.65 | 0.45 | 54 | 1013.3 |
| 20260506202530 | 60 | 36 | 6.0 | 11.0 | 0.00 | 0.65 | 0.45 | 54 | 1013.1 |
| 20260506202028 | 60 | 4 | 4.0 | 13.0 | 0.00 | 0.65 | 0.45 | 54 | 1013.2 |
| 20260506201546 | 59 | 49 | 4.0 | 13.0 | 0.00 | 0.65 | 0.45 | 54 | 1012.9 |
| 20260506201031 | 60 | 356 | 7.0 | 12.0 | 0.00 | 0.65 | 0.45 | 55 | 1012.9 |
| 20260506200533 | 60 | 9 | 4.0 | 8.0 | 0.00 | 0.65 | 0.45 | 54 | 1012.9 |
| 20260506200043 | 61 | 73 | 3.0 | 8.0 | 0.00 | 0.65 | 0.45 | 54 | 1012.9 |
| 20260506195528 | 60 | 80 | 1.0 | 8.0 | 0.00 | 0.67 | 0.45 | 54 | 1013.0 |
| 20260506195033 | 60 | 56 | 5.0 | 9.0 | 0.00 | 0.67 | 0.45 | 55 | 1013.2 |
| 20260506194543 | 60 | 44 | 3.0 | 9.0 | 0.00 | 0.67 | 0.45 | 54 | 1013.1 |
| 20260506194031 | 61 | 0 | 3.0 | 8.0 | 0.00 | 0.67 | 0.45 | 54 | 1013.2 |
| 20260506193528 | 61 | 0 | 1.0 | 8.0 | 0.00 | 0.67 | 0.45 | 51 | 1013.2 |
| 20260506193041 | 61 | 36 | 3.0 | 8.0 | 0.00 | 0.67 | 0.45 | 52 | 1013.3 |
| 20260506192531 | 61 | 22 | 1.0 | 7.0 | 0.00 | 0.67 | 0.45 | 52 | 1013.2 |
| 20260506192028 | 61 | 21 | 2.0 | 7.0 | 0.00 | 0.67 | 0.45 | 55 | 1013.1 |
| 20260506191541 | 60 | 46 | 3.0 | 7.0 | 0.00 | 0.67 | 0.45 | 53 | 1013.0 |
| 20260506191028 | 60 | 47 | 4.0 | 9.0 | 0.00 | 0.67 | 0.45 | 55 | 1012.8 |
| 20260506190527 | 60 | 346 | 3.0 | 9.0 | 0.00 | 0.67 | 0.45 | 56 | 1012.8 |
| 20260506190046 | 60 | 57 | 4.0 | 9.0 | 0.00 | 0.67 | 0.45 | 56 | 1012.8 |
| 20260506185527 | 60 | 59 | 5.0 | 9.0 | 0.00 | 0.69 | 0.45 | 55 | 1012.9 |
| 20260506185030 | 60 | 350 | 3.0 | 9.0 | 0.00 | 0.69 | 0.45 | 56 | 1012.9 |
| 20260506184543 | 60 | 16 | 3.0 | 9.0 | 0.00 | 0.69 | 0.45 | 56 | 1012.9 |
| 20260506184032 | 60 | 359 | 5.0 | 10.0 | 0.00 | 0.69 | 0.45 | 58 | 1013.1 |
| 20260506183531 | 60 | 351 | 3.0 | 10.0 | 0.00 | 0.69 | 0.45 | 54 | 1013.2 |
| 20260506183044 | 60 | 0 | 5.0 | 10.0 | 0.00 | 0.69 | 0.45 | 57 | 1013.1 |
| 20260506182530 | 60 | 0 | 2.0 | 6.0 | 0.00 | 0.69 | 0.45 | 56 | 1012.9 |
| 20260506182030 | 60 | 47 | 3.0 | 9.0 | 0.00 | 0.69 | 0.45 | 57 | 1012.9 |
| 20260506181543 | 59 | 16 | 2.0 | 9.0 | 0.00 | 0.69 | 0.45 | 56 | 1012.9 |
| 20260506181031 | 59 | 4 | 5.0 | 11.0 | 0.00 | 0.69 | 0.45 | 55 | 1012.8 |
| 20260506180531 | 60 | 45 | 4.0 | 11.0 | 0.00 | 0.69 | 0.45 | 58 | 1012.8 |
| 20260506180059 | 59 | 347 | 5.0 | 11.0 | 0.00 | 0.69 | 0.45 | 58 | 1013.1 |
| 20260506175527 | 59 | 86 | 1.0 | 8.0 | 0.00 | 0.69 | 0.45 | 56 | 1013.0 |
| 20260506175028 | 59 | 29 | 3.0 | 9.0 | 0.00 | 0.69 | 0.45 | 57 | 1013.1 |
| 20260506174545 | 59 | 13 | 2.0 | 9.0 | 0.00 | 0.69 | 0.45 | 57 | 1012.9 |
| 20260506174028 | 59 | 55 | 4.0 | 10.0 | 0.00 | 0.69 | 0.45 | 58 | 1012.8 |
| 20260506173528 | 59 | 108 | 5.0 | 10.0 | 0.00 | 0.69 | 0.45 | 58 | 1012.7 |
| 20260506173056 | 59 | 169 | 2.0 | 10.0 | 0.00 | 0.69 | 0.45 | 60 | 1012.8 |
| 20260506172528 | 58 | 28 | 6.0 | 10.0 | 0.00 | 0.69 | 0.45 | 60 | 1013.0 |
| 20260506172030 | 58 | 0 | 2.0 | 10.0 | 0.00 | 0.69 | 0.45 | 63 | 1013.0 |
| 20260506171550 | 59 | 8 | 0.0 | 10.0 | 0.00 | 0.69 | 0.45 | 62 | 1013.3 |
| 20260506171034 | 58 | 0 | 2.0 | 11.0 | 0.00 | 0.69 | 0.45 | 60 | 1013.2 |
| 20260506170531 | 57 | 112 | 4.0 | 11.0 | 0.00 | 0.69 | 0.45 | 60 | 1013.4 |
| 20260506170056 | 58 | 3 | 2.0 | 9.0 | 0.00 | 0.69 | 0.45 | 61 | 1013.5 |
| 20260506165531 | 57 | 158 | 1.0 | 9.0 | 0.00 | 0.69 | 0.45 | 60 | 1013.4 |
| 20260506165031 | 57 | 95 | 3.0 | 10.0 | 0.00 | 0.69 | 0.45 | 62 | 1013.5 |
| 20260506164545 | 57 | 31 | 6.0 | 10.0 | 0.00 | 0.69 | 0.45 | 64 | 1013.6 |
| 20260506164026 | 57 | 342 | 3.0 | 10.0 | 0.00 | 0.69 | 0.45 | 62 | 1013.5 |
| 20260506163528 | 56 | 6 | 5.0 | 11.0 | 0.00 | 0.69 | 0.45 | 63 | 1013.6 |
| 20260506163105 | 56 | 11 | 6.0 | 11.0 | 0.00 | 0.69 | 0.45 | 63 | 1013.7 |
| 20260506162529 | 57 | 328 | 3.0 | 9.0 | 0.00 | 0.69 | 0.45 | 65 | 1013.6 |
| 20260506162034 | 56 | 4 | 5.0 | 9.0 | 0.00 | 0.69 | 0.45 | 68 | 1013.8 |
| 20260506161548 | 55 | 17 | 2.0 | 10.0 | 0.00 | 0.69 | 0.45 | 68 | 1013.8 |
| 20260506161030 | 54 | 352 | 4.0 | 10.0 | 0.00 | 0.69 | 0.45 | 66 | 1013.7 |
| 20260506160527 | 54 | 32 | 4.0 | 8.0 | 0.00 | 0.69 | 0.45 | 67 | 1013.8 |
| 20260506160048 | 55 | 4 | 5.0 | 10.0 | 0.00 | 0.69 | 0.45 | 68 | 1013.8 |
| 20260506155531 | 54 | 351 | 5.0 | 10.0 | 0.00 | 0.69 | 0.45 | 67 | 1013.6 |
| 20260506155031 | 54 | 346 | 5.0 | 9.0 | 0.00 | 0.69 | 0.45 | 66 | 1013.6 |
| 20260506154605 | 55 | 18 | 1.0 | 10.0 | 0.00 | 0.69 | 0.45 | 67 | 1013.4 |
| 20260506154033 | 54 | 47 | 6.0 | 10.0 | 0.00 | 0.69 | 0.45 | 69 | 1013.5 |
| 20260506153529 | 54 | 20 | 1.0 | 7.0 | 0.00 | 0.69 | 0.45 | 70 | 1013.4 |
| 20260506153049 | 54 | 44 | 3.0 | 12.0 | 0.00 | 0.69 | 0.45 | 68 | 1013.2 |
| 20260506152530 | 53 | 9 | 2.0 | 12.0 | 0.00 | 0.69 | 0.45 | 72 | 1013.1 |
| 20260506152027 | 53 | 7 | 5.0 | 12.0 | 0.00 | 0.69 | 0.45 | 72 | 1012.9 |
| 20260506151547 | 53 | 16 | 4.0 | 9.0 | 0.00 | 0.69 | 0.45 | 75 | 1012.9 |
| 20260506151118 | 52 | 53 | 2.0 | 9.0 | 0.00 | 0.69 | 0.45 | 74 | 1013.0 |
| 20260506150532 | 52 | 34 | 5.0 | 10.0 | 0.00 | 0.69 | 0.45 | 75 | 1013.0 |
| 20260506150044 | 51 | 348 | 4.0 | 10.0 | 0.00 | 0.69 | 0.45 | 76 | 1013.0 |
| 20260506145532 | 51 | 16 | 4.0 | 10.0 | 0.00 | 0.69 | 0.45 | 75 | 1013.1 |
| 20260506145031 | 51 | 19 | 3.0 | 9.0 | 0.00 | 0.69 | 0.45 | 75 | 1012.8 |
| 20260506144545 | 51 | 20 | 3.0 | 8.0 | 0.00 | 0.69 | 0.45 | 78 | 1013.0 |
| 20260506144032 | 51 | 76 | 3.0 | 7.0 | 0.00 | 0.69 | 0.45 | 78 | 1012.8 |
| 20260506143534 | 50 | 125 | 3.0 | 7.0 | 0.00 | 0.69 | 0.45 | 81 | 1013.0 |
| 20260506143053 | 50 | 0 | 1.0 | 7.0 | 0.00 | 0.69 | 0.45 | 80 | 1012.9 |
| 20260506142531 | 50 | 13 | 2.0 | 7.0 | 0.00 | 0.69 | 0.45 | 81 | 1012.9 |
| 20260506142031 | 50 | 77 | 2.0 | 7.0 | 0.00 | 0.69 | 0.45 | 81 | 1012.9 |
| 20260506141546 | 50 | 51 | 3.0 | 7.0 | 0.00 | 0.69 | 0.45 | 81 | 1012.9 |
| 20260506141034 | 49 | 338 | 2.0 | 7.0 | 0.00 | 0.69 | 0.45 | 84 | 1012.7 |
| 20260506140535 | 48 | 0 | 1.0 | 10.0 | 0.00 | 0.69 | 0.45 | 83 | 1012.6 |
| 20260506140045 | 48 | 2 | 4.0 | 10.0 | 0.00 | 0.69 | 0.45 | 83 | 1012.7 |
| 20260506135531 | 48 | 352 | 4.0 | 11.0 | 0.00 | 0.69 | 0.45 | 84 | 1012.5 |
| 20260506135031 | 48 | 27 | 4.0 | 11.0 | 0.00 | 0.69 | 0.45 | 84 | 1012.2 |
| 20260506134549 | 47 | 318 | 4.0 | 10.0 | 0.00 | 0.69 | 0.45 | 84 | 1012.1 |
| 20260506134031 | 47 | 359 | 3.0 | 8.0 | 0.00 | 0.69 | 0.45 | 86 | 1012.1 |
| 20260506133532 | 47 | 56 | 2.0 | 7.0 | 0.00 | 0.69 | 0.45 | 87 | 1012.1 |
| 20260506133042 | 47 | 31 | 3.0 | 8.0 | 0.00 | 0.69 | 0.45 | 87 | 1012.0 |
| 20260506132532 | 47 | 351 | 5.0 | 8.0 | 0.00 | 0.69 | 0.45 | 86 | 1012.1 |
| 20260506132032 | 47 | 56 | 3.0 | 6.0 | 0.00 | 0.69 | 0.45 | 87 | 1012.1 |
| 20260506131547 | 47 | 94 | 1.0 | 5.0 | 0.00 | 0.69 | 0.45 | 87 | 1012.2 |
| 20260506131032 | 46 | 33 | 1.0 | 5.0 | 0.00 | 0.69 | 0.45 | 87 | 1012.0 |
| 20260506130531 | 46 | 24 | 2.0 | 5.0 | 0.00 | 0.69 | 0.45 | 87 | 1011.9 |
| 20260506130048 | 46 | 14 | 0.0 | 3.0 | 0.00 | 0.69 | 0.45 | 87 | 1011.9 |
| 20260506125531 | 46 | 358 | 0.0 | 2.0 | 0.00 | 0.69 | 0.45 | 88 | 1011.4 |
| 20260506125035 | 46 | 32 | 0.0 | 5.0 | 0.00 | 0.69 | 0.45 | 88 | 1011.4 |
| 20260506124546 | 46 | 0 | 1.0 | 5.0 | 0.00 | 0.69 | 0.45 | 88 | 1011.4 |
| 20260506124032 | 46 | 32 | 2.0 | 5.0 | 0.00 | 0.69 | 0.45 | 88 | 1011.7 |
| 20260506123532 | 45 | 341 | 2.0 | 5.0 | 0.00 | 0.69 | 0.45 | 88 | 1011.7 |
| 20260506123044 | 46 | 27 | 1.0 | 8.0 | 0.00 | 0.69 | 0.45 | 88 | 1011.6 |
| 20260506122529 | 45 | 38 | 3.0 | 9.0 | 0.00 | 0.69 | 0.45 | 88 | 1011.7 |
| 20260506122031 | 45 | 15 | 3.0 | 9.0 | 0.00 | 0.69 | 0.45 | 88 | 1011.5 |
| 20260506121544 | 45 | 23 | 3.0 | 8.0 | 0.00 | 0.69 | 0.45 | 88 | 1011.7 |
| 20260506121032 | 45 | 349 | 3.0 | 6.0 | 0.00 | 0.69 | 0.45 | 88 | 1011.4 |
| 20260506120530 | 45 | 358 | 2.0 | 9.0 | 0.00 | 0.69 | 0.45 | 88 | 1011.5 |
| 20260506120100 | 45 | 37 | 4.0 | 9.0 | 0.00 | 0.69 | 0.45 | 88 | 1011.6 |
| 20260506115530 | 45 | 28 | 3.0 | 8.0 | 0.00 | 0.69 | 0.45 | 88 | 1011.4 |
| 20260506115030 | 45 | 351 | 3.0 | 8.0 | 0.00 | 0.69 | 0.45 | 89 | 1011.4 |
| 20260506114556 | 45 | 351 | 3.0 | 6.0 | 0.00 | 0.69 | 0.45 | 89 | 1011.3 |
| 20260506114028 | 45 | 50 | 2.0 | 6.0 | 0.00 | 0.69 | 0.45 | 89 | 1011.4 |
| 20260506113528 | 45 | 0 | 1.0 | 6.0 | 0.00 | 0.69 | 0.45 | 89 | 1011.2 |
| 20260506113044 | 45 | 25 | 1.0 | 6.0 | 0.00 | 0.69 | 0.45 | 89 | 1011.3 |
| 20260506112531 | 45 | 1 | 1.0 | 4.0 | 0.00 | 0.69 | 0.45 | 89 | 1010.9 |
| 20260506112030 | 45 | 20 | 1.0 | 9.0 | 0.00 | 0.69 | 0.45 | 89 | 1010.8 |
| 20260506111543 | 45 | 31 | 3.0 | 9.0 | 0.00 | 0.69 | 0.45 | 88 | 1010.5 |
| 20260506111027 | 45 | 1 | 3.0 | 8.0 | 0.00 | 0.69 | 0.45 | 88 | 1010.4 |
| 20260506110530 | 46 | 18 | 4.0 | 10.0 | 0.00 | 0.69 | 0.45 | 88 | 1010.5 |
| 20260506110053 | 46 | 15 | 2.0 | 10.0 | 0.00 | 0.69 | 0.45 | 89 | 1010.4 |
| 20260506105527 | 46 | 73 | 4.0 | 10.0 | 0.00 | 0.69 | 0.45 | 88 | 1010.4 |
| 20260506105026 | 46 | 36 | 4.0 | 10.0 | 0.00 | 0.69 | 0.45 | 88 | 1010.2 |
| 20260506104539 | 46 | 17 | 2.0 | 12.0 | 0.00 | 0.69 | 0.45 | 89 | 1010.3 |
| 20260506104030 | 46 | 25 | 6.0 | 12.0 | 0.00 | 0.69 | 0.45 | 88 | 1010.4 |
| 20260506103529 | 47 | 335 | 4.0 | 8.0 | 0.00 | 0.69 | 0.45 | 89 | 1010.2 |
| 20260506103047 | 47 | 18 | 2.0 | 11.0 | 0.00 | 0.69 | 0.45 | 89 | 1010.1 |
| 20260506102530 | 47 | 1 | 4.0 | 11.0 | 0.00 | 0.69 | 0.45 | 89 | 1010.2 |
| 20260506102027 | 47 | 9 | 4.0 | 7.0 | 0.00 | 0.69 | 0.45 | 90 | 1009.5 |
| 20260506101544 | 47 | 6 | 2.0 | 7.0 | 0.00 | 0.69 | 0.45 | 90 | 1009.0 |
| 20260506101027 | 47 | 32 | 3.0 | 8.0 | 0.00 | 0.69 | 0.45 | 90 | 1009.2 |
| 20260506100527 | 47 | 15 | 2.0 | 8.0 | 0.00 | 0.69 | 0.45 | 90 | 1009.0 |
| 20260506100046 | 47 | 9 | 3.0 | 8.0 | 0.00 | 0.69 | 0.45 | 90 | 1009.5 |
| 20260506095527 | 47 | 353 | 2.0 | 8.0 | 0.00 | 0.69 | 0.45 | 90 | 1009.2 |
| 20260506095028 | 48 | 347 | 3.0 | 8.0 | 0.00 | 0.69 | 0.45 | 90 | 1009.1 |
| 20260506094552 | 48 | 28 | 1.0 | 5.0 | 0.01 | 0.69 | 0.45 | 90 | 1008.9 |
| 20260506094027 | 48 | 72 | 1.0 | 6.0 | 0.01 | 0.69 | 0.45 | 90 | 1008.7 |
| 20260506093527 | 48 | 15 | 2.0 | 6.0 | 0.01 | 0.69 | 0.45 | 90 | 1008.9 |
| 20260506093043 | 48 | 6 | 2.0 | 7.0 | 0.01 | 0.69 | 0.45 | 90 | 1008.7 |
| 20260506092527 | 48 | 342 | 2.0 | 10.0 | 0.01 | 0.69 | 0.45 | 90 | 1008.8 |
| 20260506092030 | 48 | 32 | 5.0 | 10.0 | 0.01 | 0.69 | 0.45 | 90 | 1008.7 |
| 20260506091545 | 48 | 79 | 3.0 | 8.0 | 0.01 | 0.69 | 0.45 | 90 | 1008.5 |
| 20260506091027 | 48 | 63 | 1.0 | 10.0 | 0.01 | 0.69 | 0.45 | 90 | 1008.8 |